TimeEDT,TemperatureF,Dew PointF,Humidity,Sea Level PressureIn,VisibilityMPH,Wind Direction,Wind SpeedMPH,Gust SpeedMPH,PrecipitationIn,Events,Conditions,WindDirDegrees,DateUTC
12:51 AM,51.1,39.9,66,29.93,10.0,West,5.8,-,N/A,,Partly Cloudy,270,2012-10-22 04:51:00
1:51 AM,53.1,39.9,61,29.93,10.0,West,11.5,-,N/A,,Partly Cloudy,260,2012-10-22 05:51:00
2:51 AM,51.1,39.9,66,29.93,10.0,WSW,6.9,-,N/A,,Partly Cloudy,250,2012-10-22 06:51:00
3:51 AM,48.9,39.9,71,29.93,10.0,WSW,10.4,-,N/A,,Clear,250,2012-10-22 07:51:00
4:51 AM,48.9,39.9,71,29.94,10.0,West,6.9,-,N/A,,Clear,260,2012-10-22 08:51:00
5:51 AM,50.0,39.9,68,29.95,10.0,West,10.4,-,N/A,,Clear,260,2012-10-22 09:51:00
6:51 AM,50.0,41.0,71,29.96,10.0,West,10.4,-,N/A,,Partly Cloudy,260,2012-10-22 10:51:00
8:51 AM,55.0,42.1,62,29.99,10.0,West,13.8,-,N/A,,Partly Cloudy,260,2012-10-22 12:51:00
9:51 AM,57.9,43.0,58,29.99,10.0,West,16.1,-,N/A,,Clear,270,2012-10-22 13:51:00
10:51 AM,60.8,42.8,52,29.97,10.0,West,15.0,21.9,N/A,,Scattered Clouds,280,2012-10-22 14:51:00
11:51 AM,63.0,42.1,46,29.97,10.0,WNW,11.5,24.2,N/A,,Scattered Clouds,290,2012-10-22 15:51:00
12:51 PM,64.0,42.1,45,29.94,10.0,WNW,12.7,20.7,N/A,,Scattered Clouds,290,2012-10-22 16:51:00
1:51 PM,64.9,41.0,42,29.93,10.0,WNW,18.4,23.0,N/A,,Scattered Clouds,290,2012-10-22 17:51:00
2:51 PM,64.9,41.0,42,29.93,10.0,WNW,12.7,24.2,N/A,,Scattered Clouds,300,2012-10-22 18:51:00
3:51 PM,64.9,39.9,40,29.93,10.0,WNW,15.0,21.9,N/A,,Scattered Clouds,290,2012-10-22 19:51:00
4:51 PM,64.9,39.9,40,29.93,10.0,WNW,11.5,-,N/A,,Scattered Clouds,300,2012-10-22 20:51:00
5:51 PM,62.6,39.2,42,29.95,10.0,WNW,6.9,-,N/A,,Clear,290,2012-10-22 21:51:00
6:51 PM,59.0,39.9,49,29.97,10.0,West,4.6,-,N/A,,Clear,260,2012-10-22 22:51:00
7:51 PM,55.9,41.0,57,29.98,10.0,WSW,5.8,-,N/A,,Clear,240,2012-10-22 23:51:00
8:51 PM,55.0,42.1,62,29.99,10.0,WSW,6.9,-,N/A,,Clear,250,2012-10-23 00:51:00
9:51 PM,53.1,42.1,66,30.00,10.0,West,6.9,-,N/A,,Clear,270,2012-10-23 01:51:00
10:51 PM,53.6,42.8,67,30.01,10.0,West,6.9,-,N/A,,Clear,280,2012-10-23 02:51:00
11:51 PM,55.0,42.1,62,30.02,10.0,WNW,5.8,-,N/A,,Clear,300,2012-10-23 03:51:00